Cadillac, MI

8:47 AM EDT on August 18, 2017 (GMT -0400)
Wexford County

Weather History for KCAD - March, 2014

Change the Weather History Date:

Sunday, March 23, 2014

  Actual Average Record
Temperature  
Mean Temperature 8 °F -  
Max Temperature 19 °F 40 °F 60 °F (1987)
Min Temperature -3 °F 19 °F -5 °F (1960)
Degree Days  
Heating Degree Days 57    
Moisture  
Dew Point 2 °F    
Average Humidity 72    
Maximum Humidity 90    
Minimum Humidity 53    
Precipitation  
Precipitation 0.00 in - - ()
Sea Level Pressure  
Sea Level Pressure 30.28 in    
Wind  
Wind Speed 5 mph (WNW)    
Max Wind Speed 13 mph    
Max Gust Speed 17 mph    
Visibility 10 miles    
Events Snow    
Averages and records for this station are not official NWS values.
T = Trace of Precipitation, MM = Missing Value Source: NWS Daily Summary

Daily Weather History Graph

Daily Weather History Graph

Search for Another Location

Airport or City:

Trip Planner

Search our weather history database for the weather conditions in past years. The results will help you decide how hot, cold, wet, or windy it might be!

Date:

Astronomy

Mar. 23, 2014 Rise Set
Actual Time 7:39 AM EDT 7:57 PM EDT
Civil Twilight 7:10 AM EDT 8:26 PM EDT
Nautical Twilight 6:36 AM EDT 9:01 PM EDT
Astronomical Twilight 6:01 AM EDT 9:36 PM EDT
Moon 2:24 AM EDT (3/23) 12:09 PM EDT (3/23)
Length of Visible Light 13h 16m
Length of Day
12h 18m
Waning Gibbous, 55% of the Moon is Illuminated
Mar 23
Waning Gibbous
Mar 23
Last Quarter
Mar 30
New
Apr 7
First Quarter
Apr 15
Full

Hourly Weather History & Observations

Time (EDT) Temp. Windchill Dew Point Humidity Pressure Visibility Wind Dir Wind Speed Gust Speed Precip Events Conditions
12:15 AM 10.0 °F -3.7 °F 5.0 °F 80% 30.24 in 10.0 mi North 10.4 mph - N/A   Clear
12:35 AM 9.0 °F -2.2 °F 4.1 °F 81% 30.25 in 10.0 mi North 6.9 mph - N/A   Clear
12:54 AM 9.1 °F -0.7 °F 4.3 °F 81% 30.26 in 10.0 mi North 5.8 mph - N/A Snow Light Snow
1:15 AM 9.3 °F -1.7 °F 4.1 °F 79% 30.26 in 10.0 mi North 6.9 mph - N/A   Overcast
1:34 AM 9.0 °F -0.9 °F 4.1 °F 81% 30.27 in 10.0 mi North 5.8 mph - N/A Snow Light Snow
1:54 AM 8.4 °F 1.8 °F 3.7 °F 81% 30.27 in 10.0 mi North 3.5 mph - N/A Snow Light Snow
2:15 AM 7.9 °F 1.2 °F 2.8 °F 80% 30.27 in 5.0 mi NW 3.5 mph - N/A Snow Light Snow
2:34 AM 7.5 °F - 3.0 °F 82% 30.28 in 10.0 mi Calm Calm - N/A   Clear
2:54 AM 5.5 °F - 2.5 °F 87% 30.28 in 10.0 mi Calm Calm - N/A Snow Light Snow
3:15 AM 4.1 °F -3.2 °F 1.8 °F 90% 30.28 in 10.0 mi WSW 3.5 mph - N/A Snow Light Snow
3:34 AM 2.8 °F - 0.1 °F 88% 30.28 in 10.0 mi Calm Calm - N/A   Clear
3:55 AM -1.3 °F -9.3 °F -3.8 °F 89% 30.27 in 10.0 mi SW 3.5 mph - N/A   Clear
4:15 AM 1.8 °F - -1.1 °F 88% 30.27 in 10.0 mi Calm Calm - N/A Snow Light Snow
4:34 AM -0.2 °F -8.1 °F -2.9 °F 88% 30.27 in 10.0 mi SW 3.5 mph - N/A   Clear
4:55 AM 0.5 °F - -3.6 °F 83% 30.27 in 10.0 mi Calm Calm - N/A   Clear
5:15 AM -0.2 °F - -5.3 °F 79% 30.28 in 10.0 mi Calm Calm - N/A Snow Light Snow
5:34 AM 1.2 °F - -4.0 °F 79% 30.28 in 10.0 mi Calm Calm - N/A   Mostly Cloudy
5:55 AM 1.2 °F - -3.6 °F 80% 30.28 in 5.0 mi Calm Calm - N/A Snow Light Snow
6:15 AM 0.3 °F - -3.8 °F 83% 30.28 in 3.0 mi Calm Calm - N/A Snow Light Snow
6:34 AM -0.0 °F -7.9 °F -3.5 °F 85% 30.29 in 10.0 mi WSW 3.5 mph - N/A Snow Light Snow
6:55 AM -1.7 °F - -5.8 °F 83% 30.29 in 10.0 mi Calm Calm - N/A   Clear
7:15 AM -1.1 °F - -6.0 °F 80% 30.30 in 10.0 mi Calm Calm - N/A   Clear
7:34 AM -1.8 °F - -6.7 °F 80% 30.30 in 10.0 mi Calm Calm - N/A   Clear
7:55 AM -0.2 °F - -6.2 °F 76% 30.30 in 10.0 mi Calm Calm - N/A   Scattered Clouds
8:15 AM -3.1 °F - -7.8 °F 80% 30.30 in 10.0 mi Calm Calm - N/A   Clear
8:34 AM -0.2 °F - -6.3 °F 75% 30.30 in 10.0 mi Calm Calm - N/A   Clear
8:55 AM 2.7 °F - -3.6 °F 75% 30.30 in 10.0 mi Calm Calm - N/A   Clear
9:15 AM 2.5 °F - -0.6 °F 87% 30.30 in 10.0 mi Calm Calm - N/A   Scattered Clouds
9:34 AM 3.6 °F - 0.3 °F 86% 30.30 in 10.0 mi Calm Calm - N/A   Scattered Clouds
9:55 AM 7.0 °F - 3.0 °F 84% 30.30 in 10.0 mi Calm Calm - N/A   Clear
10:15 AM 11.3 °F - 6.4 °F 81% 30.30 in 7.0 mi Calm Calm - N/A Snow Light Snow
10:34 AM 15.1 °F 5.2 °F 5.2 °F 65% 30.30 in 10.0 mi NW 6.9 mph - N/A   Overcast
10:55 AM 14.9 °F 3.1 °F 4.3 °F 63% 30.30 in 10.0 mi WNW 9.2 mph - N/A   Overcast
11:15 AM 15.4 °F 6.8 °F 4.8 °F 63% 30.31 in 10.0 mi NW 5.8 mph - N/A   Mostly Cloudy
11:34 AM 16.5 °F 5.1 °F 4.8 °F 60% 30.31 in 10.0 mi WNW 9.2 mph - N/A   Mostly Cloudy
11:55 AM 16.0 °F 3.6 °F 4.5 °F 60% 30.31 in 10.0 mi WNW 10.4 mph - N/A   Overcast
12:15 PM 16.7 °F 6.2 °F 5.7 °F 62% 30.31 in 10.0 mi West 8.1 mph - N/A   Overcast
12:34 PM 18.1 °F 10.0 °F 4.1 °F 54% 30.30 in 10.0 mi NW 5.8 mph - N/A   Overcast
12:55 PM 17.8 °F 9.6 °F 5.2 °F 58% 30.30 in 10.0 mi NW 5.8 mph - N/A   Overcast
1:14 PM 18.1 °F 8.9 °F 4.3 °F 55% 30.29 in 10.0 mi WNW 6.9 mph - N/A   Mostly Cloudy
1:34 PM 18.0 °F 7.7 °F 5.4 °F 58% 30.29 in 10.0 mi West 8.1 mph - N/A   Overcast
1:55 PM 18.9 °F 6.5 °F 4.8 °F 54% 30.29 in 10.0 mi West 11.5 mph - N/A   Overcast
2:14 PM 17.8 °F 6.6 °F 4.5 °F 56% 30.28 in 10.0 mi WNW 9.2 mph - N/A   Overcast
2:34 PM 18.5 °F 5.5 °F 5.0 °F 56% 30.28 in 10.0 mi NW 12.7 mph 17.3 mph N/A   Overcast
2:55 PM 18.3 °F 8.2 °F 3.9 °F 53% 30.27 in 10.0 mi NW 8.1 mph - N/A   Overcast
3:14 PM 18.3 °F 9.1 °F 4.8 °F 56% 30.27 in 10.0 mi NW 6.9 mph - N/A   Overcast
3:35 PM 19.2 °F 7.0 °F 5.7 °F 56% 30.26 in 10.0 mi NW 11.5 mph - N/A   Overcast
3:55 PM 18.3 °F 5.2 °F 5.2 °F 57% 30.26 in 10.0 mi NW 12.7 mph - N/A   Overcast
4:14 PM 18.5 °F 6.1 °F 4.8 °F 55% 30.26 in 10.0 mi NW 11.5 mph - N/A   Overcast
4:35 PM 18.3 °F 7.3 °F 5.0 °F 56% 30.26 in 10.0 mi NW 9.2 mph - N/A   Overcast
4:55 PM 18.1 °F 7.1 °F 4.5 °F 55% 30.25 in 10.0 mi NNW 9.2 mph - N/A   Overcast
5:14 PM 18.1 °F 6.3 °F 4.3 °F 55% 30.26 in 10.0 mi NW 10.4 mph 17.3 mph N/A   Overcast
5:35 PM 18.0 °F 5.4 °F 4.1 °F 55% 30.26 in 10.0 mi NW 11.5 mph - N/A   Overcast
5:55 PM 17.4 °F 5.4 °F 4.8 °F 58% 30.26 in 10.0 mi NW 10.4 mph - N/A   Overcast
6:14 PM 17.4 °F 5.4 °F 5.0 °F 58% 30.26 in 10.0 mi WNW 10.4 mph - N/A   Overcast
6:35 PM 16.9 °F 4.8 °F 5.4 °F 61% 30.26 in 10.0 mi NW 10.4 mph - N/A   Overcast
6:55 PM 16.7 °F 5.3 °F 3.9 °F 57% 30.27 in 10.0 mi West 9.2 mph - N/A   Overcast
7:14 PM 16.2 °F 5.5 °F 3.6 °F 58% 30.27 in 10.0 mi WNW 8.1 mph - N/A   Overcast
7:35 PM 16.2 °F 6.5 °F 4.5 °F 60% 30.28 in 10.0 mi WNW 6.9 mph - N/A   Overcast
7:55 PM 15.6 °F 4.0 °F 4.8 °F 62% 30.27 in 10.0 mi West 9.2 mph - N/A   Overcast
8:14 PM 15.1 °F 6.4 °F 5.9 °F 67% 30.27 in 10.0 mi WNW 5.8 mph - N/A   Overcast
8:35 PM 12.9 °F 5.2 °F 3.9 °F 67% 30.27 in 10.0 mi West 4.6 mph - N/A   Scattered Clouds
8:55 PM 12.2 °F 6.1 °F 3.7 °F 69% 30.28 in 10.0 mi West 3.5 mph - N/A   Clear
9:14 PM 10.6 °F 4.3 °F 3.0 °F 72% 30.28 in 10.0 mi West 3.5 mph - N/A   Clear
9:35 PM 8.4 °F - 3.0 °F 79% 30.28 in 10.0 mi Calm Calm - N/A   Clear
9:55 PM 6.8 °F - 2.3 °F 82% 30.28 in 10.0 mi Calm Calm - N/A   Clear
10:14 PM 6.4 °F - 2.7 °F 84% 30.28 in 10.0 mi Calm Calm - N/A   Clear
10:35 PM 4.6 °F - -0.6 °F 79% 30.28 in 10.0 mi Calm Calm - N/A   Clear
10:55 PM 4.6 °F - 0.3 °F 82% 30.28 in 10.0 mi Calm Calm - N/A   Clear
11:14 PM 2.5 °F - -1.3 °F 84% 30.28 in 10.0 mi Calm Calm - N/A   Clear
11:35 PM 2.1 °F - -0.9 °F 87% 30.28 in 10.0 mi Calm Calm - N/A   Clear
11:54 PM 0.9 °F - -2.9 °F 84% 30.27 in 10.0 mi Calm Calm - N/A   Clear